GREENCUBE (IO-117)

Last updated on Sun Jun 21 2026 00:03:20 GMT+0000 (Coordinated Universal Time)

1 53109U 22080E 26171.29702633 -.00000003 00000+0 00000+0 0 9991 2 53109 70.1444 297.1634 0008923 288.8810 71.0882 6.42583222 92268
UTC large
Height (km)
Speed (km/s)
/
Latitude / Longitude
Inclination (degrees)
Orbital Period (minutes)
Azimuth
Elevation
Range (km)
Doppler Factor

Next 0 passes for location: London (51.5072 / 0.1276)

No passes found over London.
GREENCUBE (IO-117)